Time,TemperatureF,DewpointF,PressureIn,WindDirection,WindDirectionDegrees,WindSpeedMPH,WindSpeedGustMPH,Humidity,HourlyPrecipIn,Conditions,Clouds,dailyrainin,SoftwareType,DateUTC
2013-03-04 00:05:00,22.6,19.0,30.04,ESE,121,2.0,4.0,85,0.00,,,0.00,weatherlink.com 1.10,2013-03-04 05:05:00,
2013-03-04 00:24:00,22.7,18.0,30.04,SE,134,1.0,4.0,82,0.00,,,0.00,weatherlink.com 1.10,2013-03-04 05:24:00,
2013-03-04 00:42:00,22.7,18.0,30.04,ESE,104,3.0,7.0,82,0.00,,,0.00,weatherlink.com 1.10,2013-03-04 05:42:00,
2013-03-04 01:00:00,22.6,18.0,30.05,SSE,152,4.0,9.0,82,0.00,,,0.00,weatherlink.com 1.10,2013-03-04 06:00:00,
2013-03-04 01:20:00,22.4,18.0,30.05,ESE,116,2.0,7.0,84,0.00,,,0.00,weatherlink.com 1.10,2013-03-04 06:20:00,
2013-03-04 01:38:00,22.3,18.0,30.05,ESE,120,3.0,9.0,83,0.00,,,0.00,weatherlink.com 1.10,2013-03-04 06:38:00,
2013-03-04 01:56:00,22.3,18.0,30.05,East,80,2.0,6.0,83,0.00,,,0.00,weatherlink.com 1.10,2013-03-04 06:56:00,
2013-03-04 02:16:00,22.4,17.0,30.05,SE,139,6.0,6.0,80,0.00,,,0.00,weatherlink.com 1.10,2013-03-04 07:16:00,
2013-03-04 02:34:00,22.5,16.0,30.05,ESE,110,2.0,7.0,76,0.00,,,0.00,weatherlink.com 1.10,2013-03-04 07:34:00,
2013-03-04 02:52:00,22.5,16.0,30.06,SE,130,4.0,10.0,76,0.00,,,0.00,weatherlink.com 1.10,2013-03-04 07:52:00,
2013-03-04 03:10:00,22.3,16.0,30.06,ESE,118,2.0,6.0,76,0.00,,,0.00,weatherlink.com 1.10,2013-03-04 08:10:00,
2013-03-04 03:30:00,22.3,16.0,30.06,ESE,118,1.0,7.0,78,0.00,,,0.00,weatherlink.com 1.10,2013-03-04 08:30:00,
2013-03-04 03:48:00,22.3,17.0,30.06,SE,124,2.0,8.0,81,0.00,,,0.00,weatherlink.com 1.10,2013-03-04 08:48:00,
2013-03-04 04:06:00,22.1,18.0,30.07,ESE,113,4.0,9.0,84,0.00,,,0.00,weatherlink.com 1.10,2013-03-04 09:06:00,
2013-03-04 04:26:00,22.0,19.0,30.08,ESE,106,1.0,9.0,86,0.00,,,0.00,weatherlink.com 1.10,2013-03-04 09:26:00,
2013-03-04 04:44:00,21.9,19.0,30.09,ESE,102,4.0,6.0,88,0.00,,,0.00,weatherlink.com 1.10,2013-03-04 09:44:00,
2013-03-04 05:02:00,21.7,19.0,30.09,ESE,120,5.0,8.0,89,0.00,,,0.00,weatherlink.com 1.10,2013-03-04 10:02:00,
2013-03-04 05:21:00,21.4,19.0,30.09,East,81,4.0,6.0,90,0.00,,,0.00,weatherlink.com 1.10,2013-03-04 10:21:00,
2013-03-04 05:39:00,21.4,19.0,30.10,ESE,117,0.0,5.0,91,0.00,,,0.00,weatherlink.com 1.10,2013-03-04 10:39:00,
2013-03-04 05:59:00,21.4,19.0,30.10,East,92,0.0,5.0,91,0.00,,,0.00,weatherlink.com 1.10,2013-03-04 10:59:00,
2013-03-04 06:17:00,21.2,19.0,30.11,ESE,115,4.0,8.0,91,0.00,,,0.00,weatherlink.com 1.10,2013-03-04 11:17:00,
2013-03-04 06:35:00,21.2,19.0,30.11,ESE,120,8.0,8.0,91,0.00,,,0.00,weatherlink.com 1.10,2013-03-04 11:35:00,
2013-03-04 06:55:00,21.2,17.0,30.12,SE,130,8.0,12.0,84,0.00,,,0.00,weatherlink.com 1.10,2013-03-04 11:55:00,
2013-03-04 07:13:00,21.2,17.0,30.13,SE,124,0.0,7.0,83,0.00,,,0.00,weatherlink.com 1.10,2013-03-04 12:13:00,
2013-03-04 07:31:00,21.3,17.0,30.13,ESE,103,4.0,4.0,84,0.00,,,0.00,weatherlink.com 1.10,2013-03-04 12:31:00,
2013-03-04 07:51:00,21.6,16.0,30.14,ESE,122,6.0,6.0,80,0.00,,,0.00,weatherlink.com 1.10,2013-03-04 12:51:00,
2013-03-04 08:09:00,21.9,16.0,30.15,ESE,118,3.0,7.0,79,0.00,,,0.00,weatherlink.com 1.10,2013-03-04 13:09:00,
2013-03-04 08:27:00,22.3,16.0,30.16,East,92,4.0,10.0,78,0.00,,,0.00,weatherlink.com 1.10,2013-03-04 13:27:00,
2013-03-04 08:45:00,22.5,17.0,30.16,ESE,105,8.0,11.0,80,0.00,,,0.00,weatherlink.com 1.10,2013-03-04 13:45:00,
2013-03-04 09:05:00,22.9,19.0,30.16,ENE,68,6.0,9.0,83,0.00,,,0.00,weatherlink.com 1.10,2013-03-04 14:05:00,
2013-03-04 09:23:00,22.8,19.0,30.16,ESE,122,3.0,10.0,85,0.00,,,0.00,weatherlink.com 1.10,2013-03-04 14:23:00,
2013-03-04 09:41:00,23.5,18.0,30.16,ESE,118,4.0,13.0,80,0.00,,,0.00,weatherlink.com 1.10,2013-03-04 14:41:00,
2013-03-04 10:01:00,24.3,18.0,30.16,East,97,5.0,11.0,78,0.00,,,0.00,weatherlink.com 1.10,2013-03-04 15:01:00,
2013-03-04 10:19:00,25.3,20.0,30.16,SE,124,4.0,7.0,79,0.00,,,0.00,weatherlink.com 1.10,2013-03-04 15:19:00,
2013-03-04 10:37:00,25.0,18.0,30.16,SE,141,13.0,13.0,74,0.00,,,0.00,weatherlink.com 1.10,2013-03-04 15:37:00,
2013-03-04 10:57:00,25.1,18.0,30.16,ESE,120,5.0,12.0,73,0.00,,,0.00,weatherlink.com 1.10,2013-03-04 15:57:00,
2013-03-04 11:15:00,25.8,19.0,30.15,East,82,3.0,10.0,76,0.00,,,0.00,weatherlink.com 1.10,2013-03-04 16:15:00,
2013-03-04 11:33:00,25.6,20.0,30.15,ESE,123,0.0,13.0,78,0.00,,,0.00,weatherlink.com 1.10,2013-03-04 16:33:00,
2013-03-04 11:53:00,26.5,19.0,30.15,SE,133,8.0,14.0,74,0.00,,,0.00,weatherlink.com 1.10,2013-03-04 16:53:00,
2013-03-04 12:11:00,26.9,19.0,30.15,SE,127,5.0,15.0,71,0.00,,,0.00,weatherlink.com 1.10,2013-03-04 17:11:00,
2013-03-04 12:29:00,27.6,19.0,30.14,SE,141,8.0,13.0,70,0.00,,,0.00,weatherlink.com 1.10,2013-03-04 17:29:00,
2013-03-04 12:49:00,28.0,19.0,30.13,SE,127,5.0,13.0,68,0.00,,,0.00,weatherlink.com 1.10,2013-03-04 17:49:00,
2013-03-04 13:07:00,29.6,20.0,30.12,SE,143,7.0,13.0,68,0.00,,,0.00,weatherlink.com 1.10,2013-03-04 18:07:00,
2013-03-04 13:25:00,30.0,20.0,30.11,East,99,5.0,9.0,66,0.00,,,0.00,weatherlink.com 1.10,2013-03-04 18:25:00,
2013-03-04 13:43:00,29.6,19.0,30.11,SE,143,12.0,13.0,65,0.00,,,0.00,weatherlink.com 1.10,2013-03-04 18:43:00,
2013-03-04 14:03:00,30.5,19.0,30.10,SE,139,8.0,12.0,63,0.00,,,0.00,weatherlink.com 1.10,2013-03-04 19:03:00,
2013-03-04 14:21:00,32.2,21.0,30.10,ESE,121,8.0,13.0,64,0.00,,,0.00,weatherlink.com 1.10,2013-03-04 19:21:00,
2013-03-04 14:39:00,32.7,20.0,30.09,SSE,153,5.0,14.0,61,0.00,,,0.00,weatherlink.com 1.10,2013-03-04 19:39:00,
2013-03-04 14:59:00,34.6,21.0,30.09,ESE,108,8.0,15.0,57,0.00,,,0.00,weatherlink.com 1.10,2013-03-04 19:59:00,
2013-03-04 15:17:00,35.1,21.0,30.09,ESE,121,9.0,15.0,57,0.00,,,0.00,weatherlink.com 1.10,2013-03-04 20:17:00,
2013-03-04 15:35:00,35.7,21.0,30.09,SE,143,7.0,9.0,55,0.00,,,0.00,weatherlink.com 1.10,2013-03-04 20:35:00,
2013-03-04 15:55:00,35.5,20.0,30.09,ESE,121,9.0,12.0,54,0.00,,,0.00,weatherlink.com 1.10,2013-03-04 20:55:00,
2013-03-04 16:13:00,35.7,20.0,30.09,SE,131,11.0,15.0,54,0.00,,,0.00,weatherlink.com 1.10,2013-03-04 21:13:00,
2013-03-04 16:31:00,35.7,20.0,30.08,ESE,113,8.0,12.0,53,0.00,,,0.00,weatherlink.com 1.10,2013-03-04 21:31:00,
2013-03-04 16:49:00,35.6,20.0,30.09,ESE,108,4.0,13.0,53,0.00,,,0.00,weatherlink.com 1.10,2013-03-04 21:49:00,
2013-03-04 17:09:00,35.5,20.0,30.09,SE,137,4.0,13.0,53,0.00,,,0.00,weatherlink.com 1.10,2013-03-04 22:09:00,
2013-03-04 17:27:00,35.3,20.0,30.09,SE,124,8.0,13.0,54,0.00,,,0.00,weatherlink.com 1.10,2013-03-04 22:27:00,
2013-03-04 17:45:00,34.6,20.0,30.09,SE,139,5.0,9.0,55,0.00,,,0.00,weatherlink.com 1.10,2013-03-04 22:45:00,
2013-03-04 18:05:00,33.5,20.0,30.09,SE,124,3.0,8.0,58,0.00,,,0.00,weatherlink.com 1.10,2013-03-04 23:05:00,
2013-03-04 18:23:00,32.5,20.0,30.10,ESE,118,0.0,2.0,60,0.00,,,0.00,weatherlink.com 1.10,2013-03-04 23:23:00,
2013-03-04 18:44:00,31.4,20.0,30.10,ESE,119,0.0,2.0,62,0.00,,,0.00,weatherlink.com 1.10,2013-03-04 23:44:00,
2013-03-04 19:00:00,30.2,19.0,30.11,ESE,118,0.0,1.0,64,0.00,,,0.00,weatherlink.com 1.10,2013-03-05 00:00:00,
2013-03-04 19:18:00,28.9,19.0,30.11,ESE,118,0.0,0.0,67,0.00,,,0.00,weatherlink.com 1.10,2013-03-05 00:18:00,
2013-03-04 19:36:00,28.0,19.0,30.11,ESE,118,0.0,0.0,68,0.00,,,0.00,weatherlink.com 1.10,2013-03-05 00:36:00,
2013-03-04 19:54:00,28.2,20.0,30.12,ESE,118,0.0,0.0,70,0.00,,,0.00,weatherlink.com 1.10,2013-03-05 00:54:00,
2013-03-04 20:14:00,27.9,20.0,30.11,ESE,118,0.0,0.0,72,0.00,,,0.00,weatherlink.com 1.10,2013-03-05 01:14:00,
2013-03-04 20:32:00,27.3,19.0,30.12,ESE,118,0.0,0.0,72,0.00,,,0.00,weatherlink.com 1.10,2013-03-05 01:32:00,
2013-03-04 20:50:00,27.1,20.0,30.12,ESE,118,0.0,0.0,74,0.00,,,0.00,weatherlink.com 1.10,2013-03-05 01:50:00,
2013-03-04 21:10:00,27.0,20.0,30.12,ESE,118,0.0,1.0,74,0.00,,,0.00,weatherlink.com 1.10,2013-03-05 02:10:00,
2013-03-04 21:28:00,26.6,20.0,30.12,ESE,118,0.0,1.0,76,0.00,,,0.00,weatherlink.com 1.10,2013-03-05 02:28:00,
2013-03-04 21:46:00,26.3,20.0,30.12,ESE,118,0.0,1.0,76,0.00,,,0.00,weatherlink.com 1.10,2013-03-05 02:46:00,
2013-03-04 22:06:00,26.3,20.0,30.12,ESE,119,0.0,1.0,76,0.00,,,0.00,weatherlink.com 1.10,2013-03-05 03:06:00,
2013-03-04 22:24:00,26.2,19.0,30.12,ESE,118,0.0,1.0,75,0.00,,,0.00,weatherlink.com 1.10,2013-03-05 03:24:00,
2013-03-04 22:44:00,25.6,19.0,30.12,ESE,118,0.0,0.0,77,0.00,,,0.00,weatherlink.com 1.10,2013-03-05 03:44:00,
2013-03-04 23:00:00,24.9,19.0,30.12,ESE,118,0.0,0.0,79,0.00,,,0.00,weatherlink.com 1.10,2013-03-05 04:00:00,
2013-03-04 23:20:00,24.7,19.0,30.12,ESE,119,0.0,0.0,80,0.00,,,0.00,weatherlink.com 1.10,2013-03-05 04:20:00,
2013-03-04 23:38:00,24.0,19.0,30.12,ESE,118,0.0,0.0,81,0.00,,,0.00,weatherlink.com 1.10,2013-03-05 04:38:00,
2013-03-04 23:56:00,23.4,19.0,30.12,ESE,117,0.0,0.0,83,0.00,,,0.00,weatherlink.com 1.10,2013-03-05 04:56:00,